Location: Pinon Hills
(34.4429°N, 117.6403°W)
Time: 17:50:23
(UTC-07:00)

Amateur Radio Satellites - All Passes

Search period start: 26 March 2017 17:20
Search period end: 27 March 2017 17:20
Location: Pinon Hills, 34.4429°N, 117.6403°W

Satellite Date Start Highest point End Downlink Frequencies (MHz)
Time Altitude Azimuth
XW-2F 26 Mar 17:31:41 17:34:22 19° 71° (ENE) 17:37:02 145.980 - 146.000
LilacSat-2 26 Mar 17:32:58 17:35:53 21° 71° (ENE) 17:38:49 437.200
KKS-1 26 Mar 17:39:59 17:44:26 63° 285° (WNW) 17:48:50 437.445
O/OREOS (USA 219) 26 Mar 17:42:42 17:46:46 33° 295° (WNW) 17:50:53 437.305
AO-7 26 Mar 17:45:15 17:48:08 12° 269° (W) 17:51:00 .
HO-68 26 Mar 17:49:01 17:51:40 12° 56° (NE) 17:54:20 435.675
CUTE-I 26 Mar 17:53:41 17:58:42 42° 71° (ENE) 18:03:44 437.470
NUDT-PHONESAT 26 Mar 17:56:05 17:59:24 31° 73° (ENE) 18:02:43 437.300
XW-2D 26 Mar 17:56:39 18:00:15 42° 75° (ENE) 18:03:51 145.860 - 145.880
XW-2B 26 Mar 18:02:30 18:06:11 49° 75° (ENE) 18:09:51 145.730 - 145.750
KAITUO 1B 26 Mar 18:03:18 18:06:48 39° 74° (ENE) 18:10:19 145.475/437.950
PCSat 26 Mar 18:07:11 18:10:44 17° 51° (NE) 18:14:16 145.827
XW-2C 26 Mar 18:12:34 18:16:21 70° 77° (ENE) 18:20:09 145.795 - 145.815
STARS 26 Mar 18:15:56 18:20:16 57° 286° (WNW) 18:24:35 437.465
YUBILEINY 26 Mar 18:18:12 18:25:55 34° 74° (ENE) 18:33:37 435.215
M-CUBED/EXP-1 PRIME 26 Mar 18:34:39 18:38:32 26° 101° (E) 18:42:23 437.505
CUTE 1.7 + AOD 2 26 Mar 18:35:41 18:37:43 13° 67° (ENE) 18:39:44 437.475
RS-15 26 Mar 18:37:08 18:42:56 14° 12° (NNE) 18:48:41 29.354- 29.394
DOVE 4 26 Mar 18:47:16 18:51:29 36° 263° (W) 18:55:59 437.250
CUBESAT XI-V 26 Mar 18:53:43 18:56:08 14° 294° (WNW) 18:58:35 437.345
XW-2F 26 Mar 19:05:17 19:08:20 23° 264° (W) 19:11:23 145.980 - 146.000
LilacSat-2 26 Mar 19:07:09 19:10:03 20° 264° (W) 19:12:57 437.200
UWE-3 26 Mar 19:21:30 19:23:51 14° 67° (ENE) 19:26:11 435.000/436.395/437.385
HO-68 26 Mar 19:31:06 19:38:14 78° 73° (ENE) 19:45:23 435.675
NUDT-PHONESAT 26 Mar 19:31:33 19:33:22 13° 266° (W) 19:35:12 437.300
CUTE-I 26 Mar 19:34:56 19:38:50 20° 265° (W) 19:42:47 437.470
XW-2A 26 Mar 19:38:26 19:41:52 69° 259° (W) 19:45:18 145.665 - 145.685
KAITUO 1B 26 Mar 19:40:22 19:40:58 10° 267° (W) 19:41:35 145.475/437.950
Tancredo 1 26 Mar 19:45:05 19:47:52 29° 131° (SE) 19:50:40 437.200
ISS 26 Mar 19:45:59 19:48:46 26° 130° (SE) 19:51:34 437.550
AAUSAT CUBESAT 2 26 Mar 19:46:16 19:49:42 26° 71° (ENE) 19:53:08 437.432
STRAND 1 26 Mar 19:47:39 19:52:29 42° 99° (E) 19:57:16 437.568
PCSat 26 Mar 19:49:11 19:54:32 62° 248° (WSW) 19:59:52 145.827
CUBEBUG 2 26 Mar 19:52:58 19:57:34 52° 74° (ENE) 20:02:11 437.445
Oscar 11 26 Mar 19:54:33 19:56:25 13° 67° (ENE) 19:58:18 .
ZACube-1 26 Mar 20:00:39 20:04:04 21° 70° (ENE) 20:07:27 437.345
SEEDS 26 Mar 20:01:38 20:05:48 85° 261° (W) 20:09:59 437.485
M-CUBED/EXP-1 PRIME 26 Mar 20:08:51 20:12:50 29° 294° (WNW) 20:16:49 437.505
CUTE 1.7 + AOD 2 26 Mar 20:09:09 20:13:08 42° 261° (W) 20:17:08 437.475
YUBILEINY 26 Mar 20:14:41 20:22:46 45° 272° (W) 20:30:50 435.215
AO-73 26 Mar 20:28:01 20:32:13 38° 73° (ENE) 20:36:23 145.935
AO-85 26 Mar 20:44:57 20:49:29 75° 117° (ESE) 20:53:42 145.980
RS-15 26 Mar 20:49:50 21:00:53 36° 45° (NE) 21:11:27 29.354- 29.394
UWE-3 26 Mar 20:55:17 20:59:49 51° 260° (W) 21:04:21 435.000/436.395/437.385
DELFI C3 26 Mar 21:03:56 21:06:55 21° 71° (ENE) 21:09:54 145.870
BEESAT 3 26 Mar 21:21:01 21:22:59 14° 108° (ESE) 21:24:58 437.485
Tancredo 1 26 Mar 21:21:31 21:24:00 21° 326° (NW) 21:26:30 437.200
AAUSAT CUBESAT 2 26 Mar 21:22:12 21:25:07 19° 265° (W) 21:28:02 437.432
ISS 26 Mar 21:22:28 21:25:11 24° 325° (NW) 21:27:55 437.550
HO-68 26 Mar 21:22:33 21:26:31 16° 268° (W) 21:30:31 435.675
STRAND 1 26 Mar 21:27:44 21:31:18 19° 294° (WNW) 21:34:51 437.568
Oscar 11 26 Mar 21:27:57 21:32:06 47° 261° (W) 21:36:16 .
CUBEBUG 2 26 Mar 21:32:08 21:34:23 13° 268° (W) 21:36:40 437.445
ZACube-1 26 Mar 21:36:06 21:40:07 30° 263° (W) 21:44:07 437.345
UNISAT 6 26 Mar 21:52:32 21:54:48 14° 93° (E) 21:57:05 437.425
AO-73 26 Mar 22:05:43 22:08:31 16° 266° (W) 22:11:19 145.935
AO-85 26 Mar 22:29:21 22:30:15 11° 312° (NW) 22:31:07 145.980
PRISM 26 Mar 22:32:25 22:36:35 85° 286° (WNW) 22:40:45 437.425
LO-87 26 Mar 22:32:37 22:35:36 25° 72° (ENE) 22:38:37 145.935 - 145.965
DELFI C3 26 Mar 22:38:32 22:41:34 21° 264° (W) 22:44:37 145.870
BEESAT 3 26 Mar 22:56:32 23:00:11 38° 303° (WNW) 23:03:54 437.485
RS-15 26 Mar 23:02:11 23:14:12 68° 248° (WSW) 23:25:37 29.354- 29.394
BEESAT 2 26 Mar 23:12:36 23:16:31 70° 300° (WNW) 23:20:30 435.950
FO-29 26 Mar 23:13:41 23:19:30 63° 101° (E) 23:24:45 435.910
AIST 2D 26 Mar 23:16:37 23:18:22 13° 94° (E) 23:20:06 435.315
TIGRISAT 26 Mar 23:17:07 23:21:26 58° 285° (WNW) 23:25:38 435.000
VELOX 1 26 Mar 23:25:44 23:28:43 18° 68° (ENE) 23:31:42 145.980
UNISAT 6 26 Mar 23:27:35 23:31:41 40° 287° (WNW) 23:35:42 437.425
SO-50 26 Mar 23:38:14 23:42:26 38° 56° (NE) 23:46:36 436.795
NANOSAT C BR1 26 Mar 23:48:29 23:51:31 19° 95° (E) 23:54:31 145.865
ESTCUBE 1 26 Mar 23:49:46 23:54:11 65° 258° (WSW) 23:58:38 437.505/2401.250
EO-79 26 Mar 23:52:58 23:56:25 24° 96° (E) 23:59:49 145.935-145.965
SPROUT 27 Mar 00:05:43 00:09:47 43° 74° (ENE) 00:13:52 437.525
LO-87 27 Mar 00:06:58 00:09:02 15° 266° (W) 00:11:07 145.935 - 145.965
POLYITAN 1 27 Mar 00:20:40 00:24:48 53° 100° (E) 00:28:54 437.675
QB50P2 27 Mar 00:25:15 00:29:29 67° 101° (E) 00:33:39 145.880/145.840
DX 1 27 Mar 00:36:15 00:40:23 45° 73° (ENE) 00:44:33 434.975-435.025
DUCHIFAT 1 27 Mar 00:36:46 00:40:58 69° 101° (E) 00:45:07 145.980
AIST 2D 27 Mar 00:48:40 00:51:35 25° 287° (WNW) 00:54:29 435.315
BUGSAT 1 27 Mar 00:51:33 00:55:12 29° 97° (E) 00:58:48 437.445
50 SAT 27 Mar 00:59:20 01:02:38 44° 260° (W) 01:05:57 437.505
FO-29 27 Mar 01:00:45 01:03:47 15° 299° (WNW) 01:06:42 435.910
VELOX 1 27 Mar 01:00:54 01:04:52 34° 262° (W) 01:08:54 145.980
UKube-1 27 Mar 01:15:14 01:19:32 87° 257° (WSW) 01:23:52 .
SO-50 27 Mar 01:19:32 01:22:34 18° 250° (WSW) 01:25:35 436.795
RS-15 27 Mar 01:21:41 01:24:09 11° 265° (W) 01:26:36 29.354- 29.394
NANOSAT C BR1 27 Mar 01:23:36 01:27:12 28° 289° (WNW) 01:30:46 145.865
EO-79 27 Mar 01:28:43 01:32:02 23° 290° (WNW) 01:35:20 145.935-145.965
SPROUT 27 Mar 01:43:56 01:45:51 13° 267° (W) 01:47:47 437.525
ITUPSAT 1 27 Mar 01:49:34 01:52:10 15° 65° (ENE) 01:54:46 437.325
POLYITAN 1 27 Mar 01:59:03 02:00:04 11° 294° (WNW) 02:01:06 437.675
DX 1 27 Mar 02:14:54 02:16:45 12° 267° (W) 02:18:36 434.975-435.025
Tancredo 1 27 Mar 02:15:33 02:16:28 11° 26° (NNE) 02:17:22 437.200
O/OREOS (USA 219) 27 Mar 02:17:14 02:20:47 21° 62° (ENE) 02:24:19 437.305
ISS 27 Mar 02:17:46 02:18:41 11° 26° (NNE) 02:19:36 437.550
BUGSAT 1 27 Mar 02:27:30 02:30:18 18° 292° (WNW) 02:33:05 437.445
Oscar 19 27 Mar 02:31:35 02:36:45 76° 286° (WNW) 02:41:55 437.125/150
Gurwin Techsat 1B 27 Mar 02:50:03 02:55:24 89° 101° (E) 03:00:43 435.225
BEESAT 27 Mar 03:08:06 03:12:52 77° 256° (WSW) 03:17:40 436.000
MOZHAYETS 4 27 Mar 03:20:25 03:24:53 54° 75° (ENE) 03:29:22
ITUPSAT 1 27 Mar 03:24:52 03:29:31 51° 260° (W) 03:34:12 437.325
Tancredo 1 27 Mar 03:49:49 03:53:02 82° 44° (NE) 03:56:14 437.200
AO-7 27 Mar 03:51:59 03:59:47 44° 101° (E) 04:07:34 .
ISS 27 Mar 03:52:20 03:55:38 75° 42° (NE) 03:58:55 437.550
O/OREOS (USA 219) 27 Mar 03:56:09 04:00:11 31° 257° (WSW) 04:04:12 437.305
CUBESAT XI-V 27 Mar 04:14:38 04:18:40 31° 71° (ENE) 04:22:43 437.345
ITAMSAT 1 27 Mar 04:19:45 04:24:57 80° 285° (WNW) 04:30:07 435.822/435.867
KKS-1 27 Mar 04:34:00 04:38:26 75° 75° (ENE) 04:42:54 437.445
MOZHAYETS 4 27 Mar 05:00:44 05:02:18 12° 268° (W) 05:03:52
STARS 27 Mar 05:08:24 05:12:49 78° 77° (ENE) 05:17:16 437.465
M-CUBED/EXP-1 PRIME 27 Mar 05:18:38 05:20:41 14° 61° (ENE) 05:22:51 437.505
AO-85 27 Mar 05:20:07 05:23:06 20° 53° (NE) 05:26:10 145.980
AO-7 27 Mar 05:44:58 05:52:20 37° 297° (WNW) 05:59:42 .
CUBESAT XI-V 27 Mar 05:52:39 05:56:02 20° 265° (W) 05:59:25 437.345
NO-84 27 Mar 05:56:37 05:59:18 32° 128° (SE) 06:01:54 435.350 FM
CUTE-I 27 Mar 06:14:57 06:19:03 22° 95° (E) 06:23:08 437.470
XW-2F 27 Mar 06:40:12 06:43:44 41° 99° (E) 06:47:17 145.980 - 146.000
LilacSat-2 27 Mar 06:42:47 06:46:27 50° 100° (E) 06:50:07 437.200
DOVE 4 27 Mar 06:48:54 06:54:15 83° 104° (ESE) 06:59:24 437.250
M-CUBED/EXP-1 PRIME 27 Mar 06:51:32 06:54:47 32° 258° (WSW) 06:58:17 437.505
STRAND 1 27 Mar 06:59:54 07:04:43 42° 72° (ENE) 07:09:34 437.568
AO-85 27 Mar 07:00:03 07:03:27 27° 247° (WSW) 07:06:57 145.980
NUDT-PHONESAT 27 Mar 07:03:23 07:07:03 74° 100° (E) 07:10:42 437.300
HO-68 27 Mar 07:04:43 07:09:06 17° 93° (E) 07:13:29 435.675
XW-2D 27 Mar 07:06:28 07:10:13 74° 282° (WNW) 07:13:56 145.860 - 145.880
KAITUO 1B 27 Mar 07:11:35 07:15:17 83° 282° (WNW) 07:18:58 145.475/437.950
XW-2B 27 Mar 07:12:28 07:16:10 63° 283° (WNW) 07:19:51 145.730 - 145.750
YUBILEINY 27 Mar 07:14:20 07:22:27 45° 88° (E) 07:30:32 435.215
BEESAT 3 27 Mar 07:16:25 07:20:08 35° 57° (ENE) 07:23:49 437.485
XW-2C 27 Mar 07:22:47 07:26:22 44° 285° (WNW) 07:29:55 145.795 - 145.815
BEESAT 2 27 Mar 07:34:03 07:37:16 22° 53° (NE) 07:40:28 435.950
NO-84 27 Mar 07:35:25 07:36:54 13° 323° (NW) 07:38:22 435.350 FM
CUBEBUG 2 27 Mar 07:49:29 07:51:31 13° 92° (E) 07:53:31 437.445
SEEDS 27 Mar 07:49:38 07:52:45 20° 95° (E) 07:55:53 437.485
CUTE-I 27 Mar 07:54:15 07:59:09 38° 289° (WNW) 08:04:02 437.470
CUTE 1.7 + AOD 2 27 Mar 07:57:17 08:01:16 40° 99° (E) 08:05:14 437.475
JUGNU 27 Mar 08:00:38 08:04:15 17° 172° (S) 08:07:54 437.505
XW-2F 27 Mar 08:16:59 08:17:28 10° 293° (WNW) 08:17:56 145.980 - 146.000
DOVE 4 27 Mar 08:29:45 08:31:05 11° 297° (WNW) 08:32:25 437.250
XW-2A 27 Mar 08:36:41 08:39:49 36° 285° (WNW) 08:42:54 145.665 - 145.685
STRAND 1 27 Mar 08:40:26 08:44:01 19° 266° (W) 08:47:36 437.568
PCSat 27 Mar 08:44:39 08:49:13 29° 108° (ESE) 08:53:48 145.827
UWE-3 27 Mar 08:48:45 08:52:47 40° 98° (E) 08:56:42 435.000/436.395/437.385
HO-68 27 Mar 08:50:12 08:57:21 73° 287° (WNW) 09:04:28 435.675
BEESAT 3 27 Mar 08:55:03 08:57:24 15° 251° (WSW) 08:59:43 437.485
AAUSAT CUBESAT 2 27 Mar 09:06:14 09:10:23 84° 103° (ESE) 09:14:33 437.432
YUBILEINY 27 Mar 09:11:33 09:19:16 34° 285° (WNW) 09:27:02 435.215
BEESAT 2 27 Mar 09:11:35 09:14:59 26° 248° (WSW) 09:18:21 435.950
PRISM 27 Mar 09:18:06 09:21:52 39° 73° (ENE) 09:25:41 437.425
Oscar 11 27 Mar 09:18:34 09:22:36 38° 99° (E) 09:26:36 .
FO-29 27 Mar 09:21:02 09:26:59 25° 65° (ENE) 09:32:40 435.910
CUBEBUG 2 27 Mar 09:24:14 09:28:20 41° 287° (WNW) 09:32:19 437.445
SEEDS 27 Mar 09:24:53 09:28:23 26° 288° (WNW) 09:31:53 437.485
ZACube-1 27 Mar 09:27:29 09:31:41 67° 101° (E) 09:35:47 437.345
CUTE 1.7 + AOD 2 27 Mar 09:34:31 09:36:43 14° 292° (WNW) 09:38:55 437.475
JUGNU 27 Mar 09:48:32 09:52:34 19° 182° (S) 09:56:37 437.505
AO-73 27 Mar 09:55:27 09:59:34 59° 285° (WNW) 10:03:37 145.935
SRMSAT 27 Mar 10:05:28 10:08:49 15° 169° (S) 10:12:11 437.500
TIGRISAT 27 Mar 10:11:15 10:15:56 76° 76° (ENE) 10:20:37 435.000
DELFI C3 27 Mar 10:17:57 10:21:53 57° 100° (E) 10:25:49 145.870
UNISAT 6 27 Mar 10:21:42 10:26:24 76° 259° (W) 10:31:05 437.425
UWE-3 27 Mar 10:26:39 10:28:50 14° 293° (WNW) 10:31:00 435.000/436.395/437.385
PCSat 27 Mar 10:27:37 10:32:28 33° 303° (WNW) 10:37:20 145.827
HO-68 27 Mar 10:41:42 10:43:50 11° 305° (NW) 10:45:57 435.675
EO-79 27 Mar 10:43:30 10:45:14 12° 66° (ENE) 10:46:57 145.935-145.965
PRISM 27 Mar 10:55:32 10:57:18 12° 267° (W) 10:59:04 437.425
Oscar 11 27 Mar 10:55:55 10:58:22 15° 292° (WNW) 11:00:49 .
FO-29 27 Mar 11:03:38 11:11:25 64° 259° (W) 11:18:51 435.910
POLYITAN 1 27 Mar 11:09:54 11:13:26 25° 71° (ENE) 11:16:58 437.675
RS-15 27 Mar 11:10:00 11:19:19 28° 102° (ESE) 11:28:52 29.354- 29.394
QB50P2 27 Mar 11:14:18 11:18:03 31° 72° (ENE) 11:21:50 145.880/145.840
AIST 2D 27 Mar 11:18:45 11:22:13 56° 76° (ENE) 11:25:41 435.315
DUCHIFAT 1 27 Mar 11:25:00 11:28:45 31° 72° (ENE) 11:32:30 145.980
LO-87 27 Mar 11:35:45 11:39:20 52° 100° (E) 11:42:52 145.935 - 145.965
JUGNU 27 Mar 11:37:56 11:40:52 14° 192° (SSW) 11:43:49 437.505
BUGSAT 1 27 Mar 11:38:52 11:41:06 14° 67° (ENE) 11:43:22 437.445
ESTCUBE 1 27 Mar 11:45:52 11:49:57 33° 98° (E) 11:54:02 437.505/2401.250
SRMSAT 27 Mar 11:53:07 11:57:18 20° 179° (S) 12:01:29 437.500
Oscar 19 27 Mar 12:09:47 12:11:15 11° 63° (ENE) 12:12:42 437.125/150
NANOSAT C BR1 27 Mar 12:11:04 12:15:16 62° 259° (W) 12:19:31 145.865
EO-79 27 Mar 12:16:23 12:20:31 48° 260° (W) 12:24:40 145.935-145.965
50 SAT 27 Mar 12:28:09 12:30:01 14° 94° (E) 12:31:53 437.505
DX 1 27 Mar 12:30:52 12:31:31 10° 92° (E) 12:32:11 434.975-435.025
Gurwin Techsat 1B 27 Mar 12:32:21 12:33:36 11° 62° (ENE) 12:34:50 435.225
POLYITAN 1 27 Mar 12:45:46 12:49:06 22° 264° (W) 12:52:28 437.675
QB50P2 27 Mar 12:50:55 12:53:51 18° 265° (W) 12:56:48 145.880/145.840
VELOX 1 27 Mar 12:53:50 12:58:14 57° 101° (E) 13:02:37 145.980
DUCHIFAT 1 27 Mar 13:01:32 13:04:25 18° 265° (W) 13:07:19 145.980
UKube-1 27 Mar 13:06:34 13:09:46 20° 96° (E) 13:12:56 .
BUGSAT 1 27 Mar 13:12:05 13:16:04 40° 261° (W) 13:20:06 437.445
RS-15 27 Mar 13:18:41 13:30:35 74° 301° (WNW) 13:43:00 29.354- 29.394
ESTCUBE 1 27 Mar 13:23:19 13:26:28 19° 292° (WNW) 13:29:39 437.505/2401.250
SPROUT 27 Mar 13:30:29 13:34:41 56° 285° (WNW) 13:38:51 437.525
SRMSAT 27 Mar 13:42:12 13:45:47 16° 190° (S) 13:49:22 437.500
Oscar 19 27 Mar 13:44:46 13:49:52 76° 257° (WSW) 13:55:00 437.125/150
SO-50 27 Mar 13:49:08 13:53:08 28° 112° (ESE) 13:57:06 436.795
ITAMSAT 1 27 Mar 13:58:34 14:00:25 12° 62° (ENE) 14:02:16 435.822/435.867
50 SAT 27 Mar 14:00:06 14:03:03 25° 287° (WNW) 14:05:59 437.505
DX 1 27 Mar 14:03:41 14:07:59 55° 286° (WNW) 14:12:15 434.975-435.025
Gurwin Techsat 1B 27 Mar 14:07:27 14:12:46 83° 256° (WSW) 14:18:06 435.225
NO-84 27 Mar 14:09:42 14:12:53 51° 46° (NE) 14:16:21 435.350 FM
VELOX 1 27 Mar 14:32:41 14:34:08 11° 295° (WNW) 14:35:36 145.980
UKube-1 27 Mar 14:42:02 14:45:45 29° 289° (WNW) 14:49:28 .
AO-7 27 Mar 14:47:01 14:54:46 45° 65° (ENE) 15:02:29 .
BEESAT 27 Mar 15:11:59 15:16:20 35° 98° (E) 15:20:39 436.000
MOZHAYETS 4 27 Mar 15:20:06 15:22:59 16° 94° (E) 15:25:51
ITUPSAT 1 27 Mar 15:28:44 15:33:24 53° 101° (E) 15:38:02 437.325
SO-50 27 Mar 15:29:34 15:33:31 27° 307° (NW) 15:37:26 436.795
ITAMSAT 1 27 Mar 15:33:58 15:39:11 75° 257° (WSW) 15:44:26 435.822/435.867
RS-15 27 Mar 15:36:40 15:45:42 23° 327° (NNW) 15:54:56 29.354- 29.394
NO-84 27 Mar 15:49:10 15:50:11 11° 236° (WSW) 15:51:13 435.350 FM
O/OREOS (USA 219) 27 Mar 16:25:10 16:29:28 45° 105° (ESE) 16:33:49 437.305
KKS-1 27 Mar 16:29:26 16:32:35 19° 95° (E) 16:35:44 437.445
AO-7 27 Mar 16:40:03 16:47:30 36° 261° (W) 16:55:00 .
BEESAT 27 Mar 16:50:24 16:53:50 20° 292° (WNW) 16:57:15 436.000
MOZHAYETS 4 27 Mar 16:56:02 17:00:14 38° 287° (WNW) 17:04:25
STARS 27 Mar 17:02:18 17:05:22 18° 95° (E) 17:08:25 437.465
ITUPSAT 1 27 Mar 17:08:21 17:10:44 14° 295° (WNW) 17:13:07 437.325
